This is the latest recevied weather packets stored in our database for station/object N2UGS-WX. If no packets are shown the sender has not sent any weather packets the latest 10 day(s).
| Time | Temp. | Humidity | Pressure | Rain* | Wind** | Luminosity | Snow |
|---|---|---|---|---|---|---|---|
| 1777742702 | 7.78° C | 53% | 1015.6 hPa | 0 mm | - | - | - |
| 1777740901 | 8.33° C | 51% | 1015.6 hPa | 0 mm | - | - | - |
| 1777740002 | 7.78° C | 53% | 1015.6 hPa | 0 mm | - | - | - |
| 1777739102 | 7.22° C | 53% | 1015.6 hPa | 0 mm | - | - | - |
| 1777738442 | 7.22° C | 51% | 1015.6 hPa | 0 mm | - | - | - |
| 1777737603 | 8.33° C | 50% | 1015.6 hPa | 0 mm | - | - | - |
| 1777736702 | 7.78° C | 48% | 1015.6 hPa | 0 mm | - | - | - |
| 1777735802 | 7.22° C | 48% | 1015.6 hPa | 0 mm | - | - | - |
| 1777734903 | 8.33° C | 46% | 1015.6 hPa | 0 mm | - | - | - |
| 1777734003 | 7.78° C | 46% | 1015.6 hPa | 0 mm | - | - | - |
| 1777733402 | 7.22° C | 45% | 1015.6 hPa | 0 mm | - | - | - |
| 1777732502 | 7.78° C | 50% | 1015.6 hPa | 0 mm | - | - | - |
| 1777731602 | 6.67° C | 52% | 1015.9 hPa | 0 mm | - | - | - |
| 1777730701 | 6.11° C | 54% | 1015.9 hPa | 0 mm | - | - | - |
| 1777728902 | 5° C | 60% | 1015.9 hPa | 0 mm | - | - | - |
| 1777728002 | 5° C | 64% | 1016.3 hPa | 0 mm | - | - | - |
| 1777727104 | 5° C | 62% | 1016.3 hPa | 0 mm | - | - | - |
| 1777725603 | 4.44° C | 70% | 1016.3 hPa | 0 mm | - | - | - |
| 1777724942 | 3.89° C | 73% | 1016.3 hPa | 0 mm | - | - | - |
| 1777724102 | 3.33° C | 75% | 1016.3 hPa | 0 mm | - | - | - |
| 1777723203 | 2.78° C | 77% | 1016.3 hPa | 0 mm | - | - | - |
| 1777722302 | 2.22° C | 83% | 1015.9 hPa | 0 mm | - | - | - |
| 1777721402 | 1.67° C | 88% | 1016.3 hPa | 0 mm | - | - | - |
| 1777720502 | 1.11° C | 92% | 1015.9 hPa | 0 mm | - | - | - |
| 1777719602 | 0° C | 93% | 1015.9 hPa | 0 mm | - | - | - |
* Rain latest hour (hover to see other rain measurements)
** Current wind speed in m/s (hover to see current wind gust speed)